Location: LDNL
(36.4545°S, 141.6685°E)
Time: 18:38:14
(UTC+10:00)

A-11 Canister half - Pass Details

Date: 30 January 2022
Orbit: 1527 x 1682 km, 47.3° (Epoch: 20 May)

Event Time Altitude Azimuth Distance (km) Brightness Sun altitude
Rises 22:11:18 0° 323° (NW) 4,911 11.7 -15.8°
Reaches altitude 10° 22:14:30 10° 326° (NW) 3,935 11.1 -16.4°
Maximum altitude 22:24:24 61° 43° (NE) 1,876 9.1 -17.9°
Drops below altitude 10° 22:34:17 10° 119° (ESE) 3,928 10.9 -19.4°
Sets 22:37:28 0° 122° (ESE) 4,903 11.5 -19.9°
